CW7364 Weather Reports


Display with metric or nautical units.
time (UTC)temp
F
wind
direction
speed
MPH
gust
MPH
rain 1hr
in
rain 24hr
in
rain mn
in
humidity
%
barometer
mb
20260903035516 86 113 7.0 12.0 0.00 0.00 0.00 60 1012.5
20260903034516 87 113 4.0 7.0 0.00 0.00 0.00 61 1012.5
20260903033516 87 113 5.0 8.0 0.00 0.00 0.00 60 1012.5
20260903032516 87 113 6.0 10.0 0.00 0.00 0.00 61 1012.5
20260903031516 87 113 6.0 9.0 0.00 0.00 0.00 60 1012.3
20260903030556 88 113 5.0 8.0 0.00 0.00 0.00 60 1012.3
20260903025516 88 113 5.0 8.0 0.00 0.00 0.00 59 1012.2
20260903024516 88 113 5.0 9.0 0.00 0.00 0.00 58 1012.1
20260903023516 88 135 5.0 8.0 0.00 0.00 0.00 58 1012.0
20260903022516 88 135 3.0 6.0 0.00 0.00 0.00 58 1011.8
20260903021516 89 135 3.0 5.0 0.00 0.00 0.00 56 1011.7
20260903020515 89 135 4.0 7.0 0.00 0.00 0.00 55 1011.5
20260903015516 90 113 6.0 8.0 0.00 0.00 0.00 53 1011.4
20260903014515 89 90 6.0 13.0 0.00 0.00 0.00 53 1011.2
20260903013515 89 90 3.0 4.0 0.00 0.00 0.00 52 1011.1
20260903012515 90 90 2.0 3.0 0.00 0.00 0.00 51 1010.9
20260903011515 91 90 2.0 7.0 0.00 0.00 0.00 51 1010.9
20260903010515 91 113 2.0 3.0 0.00 0.00 0.00 50 1010.8
20260903005515 92 113 3.0 7.0 0.00 0.00 0.00 49 1010.7
20260903004517 93 90 4.0 8.0 0.00 0.00 0.00 48 1010.7
20260903003517 94 90 6.0 11.0 0.00 0.00 0.00 47 1010.7
20260903002537 94 90 7.0 14.0 0.00 0.00 0.00 47 1010.7
20260903001517 95 90 9.0 15.0 0.00 0.00 0.00 46 1010.6
20260903000517 95 90 9.0 12.0 0.00 0.00 0.00 46 1010.5
20260902235517 96 90 8.0 14.0 0.00 0.00 0.00 46 1010.6
20260902234517 96 113 7.0 11.0 0.00 0.00 0.00 45 1010.5
20260902233517 96 90 7.0 13.0 0.00 0.00 0.00 45 1010.6
20260902232517 97 113 9.0 15.0 0.00 0.00 0.00 44 1010.7
20260902231517 97 113 7.0 12.0 0.00 0.00 0.00 42 1010.6
20260902230517 97 90 10.0 14.0 0.00 0.00 0.00 42 1010.7
20260902225517 97 90 8.0 13.0 0.00 0.00 0.00 43 1010.6
20260902224517 98 90 9.0 15.0 0.00 0.00 0.00 42 1010.8
20260902223517 98 68 6.0 12.0 0.00 0.00 0.00 42 1010.7
20260902222517 98 113 10.0 14.0 0.00 0.00 0.00 41 1010.8
20260902221516 98 113 8.0 13.0 0.00 0.00 0.00 41 1011.0
20260902220517 98 90 9.0 15.0 0.00 0.00 0.00 42 1011.1
20260902215516 98 90 9.0 16.0 0.00 0.00 0.00 42 1011.1
20260902214536 98 90 8.0 13.0 0.00 0.00 0.00 42 1011.3
20260902213557 98 113 10.0 15.0 0.00 0.00 0.00 42 1011.3
20260902212517 98 90 7.0 14.0 0.00 0.00 0.00 43 1011.3
20260902211516 99 90 5.0 9.0 0.00 0.00 0.00 42 1011.4
20260902210517 99 113 7.0 12.0 0.00 0.00 0.00 42 1011.6
20260902205516 98 90 9.0 14.0 0.00 0.00 0.00 43 1011.8
20260902204536 99 68 6.0 11.0 0.00 0.00 0.00 42 1011.9
20260902203517 99 45 7.0 13.0 0.00 0.00 0.00 41 1012.0
20260902202516 99 113 7.0 11.0 0.00 0.00 0.00 42 1012.1
20260902201516 99 68 5.0 10.0 0.00 0.00 0.00 43 1012.3
20260902200516 98 90 6.0 12.0 0.00 0.00 0.00 44 1012.5
20260902195516 98 90 6.0 12.0 0.00 0.00 0.00 45 1012.5
20260902194516 98 113 9.0 14.0 0.00 0.00 0.00 45 1012.7
20260902193516 98 135 7.0 11.0 0.00 0.00 0.00 45 1012.8
20260902192516 98 90 4.0 11.0 0.00 0.00 0.00 43 1013.1
20260902191517 98 68 7.0 12.0 0.00 0.00 0.00 44 1013.3
20260902190516 97 293 2.0 7.0 0.00 0.00 0.00 45 1013.4
20260902185516 97 68 9.0 15.0 0.00 0.00 0.00 46 1013.7
20260902184536 96 135 4.0 10.0 0.00 0.00 0.00 48 1013.6
20260902183516 96 90 3.0 7.0 0.00 0.00 0.00 46 1013.8
20260902182516 96 90 5.0 11.0 0.00 0.00 0.00 47 1014.0
20260902181516 96 90 5.0 10.0 0.00 0.00 0.00 48 1014.2
20260902180516 96 90 7.0 12.0 0.00 0.00 0.00 48 1014.4
20260902175516 96 90 5.0 12.0 0.00 0.00 0.00 48 1014.5
20260902174556 95 135 4.0 9.0 0.00 0.00 0.00 49 1014.7
20260902173516 95 90 3.0 11.0 0.00 0.00 0.00 50 1014.8
20260902172516 95 113 5.0 10.0 0.00 0.00 0.00 49 1014.9
20260902171516 95 135 6.0 10.0 0.00 0.00 0.00 50 1015.1
20260902170516 94 0 2.0 6.0 0.00 0.00 0.00 50 1015.1
20260902165516 94 203 3.0 6.0 0.00 0.00 0.00 50 1015.3
20260902164516 94 180 4.0 7.0 0.00 0.00 0.00 51 1015.4
20260902163515 93 135 3.0 8.0 0.00 0.00 0.00 51 1015.6
20260902162516 93 180 3.0 7.0 0.00 0.00 0.00 52 1015.7
20260902161515 92 135 3.0 8.0 0.00 0.00 0.00 54 1015.7
20260902160535 91 113 3.0 8.0 0.00 0.00 0.00 55 1015.6
20260902155515 91 135 6.0 10.0 0.00 0.00 0.00 55 1015.6
20260902154515 91 180 5.0 12.0 0.00 0.00 0.00 55 1015.6
20260902153515 90 135 5.0 9.0 0.00 0.00 0.00 55 1015.6
20260902152515 90 203 4.0 8.0 0.00 0.00 0.00 57 1015.6
20260902151515 89 158 3.0 7.0 0.00 0.00 0.00 59 1015.6
20260902150517 89 158 3.0 8.0 0.00 0.00 0.00 60 1015.6
20260902145515 88 113 3.0 5.0 0.00 0.00 0.00 60 1015.5
20260902144517 87 203 2.0 5.0 0.00 0.00 0.00 62 1015.5
20260902143517 86 158 4.0 8.0 0.00 0.00 0.00 64 1015.4
20260902142517 86 135 5.0 9.0 0.00 0.00 0.00 65 1015.4
20260902141517 85 135 6.0 11.0 0.00 0.00 0.00 65 1015.5
20260902140517 85 135 5.0 9.0 0.00 0.00 0.00 66 1015.5
20260902135517 84 135 5.0 10.0 0.00 0.00 0.00 67 1015.6
20260902134517 84 135 4.0 7.0 0.00 0.00 0.00 68 1015.5
20260902133517 83 135 3.0 7.0 0.00 0.00 0.00 69 1015.4
20260902132517 82 113 2.0 4.0 0.00 0.00 0.00 70 1015.4
20260902131537 81 0.0 0.0 0.00 0.00 0.00 71 1015.3
20260902130537 80 0.0 0.0 0.00 0.00 0.00 73 1015.3
20260902125517 79 0.0 0.0 0.00 0.00 0.00 76 1015.1
20260902124517 78 0.0 0.0 0.00 0.00 0.00 77 1015.1
20260902123516 76 0.0 0.0 0.00 0.00 0.00 78 1015.0
20260902122557 76 0.0 2.0 0.00 0.00 0.00 78 1015.0
20260902121537 76 0.0 0.0 0.00 0.00 0.00 78 1014.9
20260902120516 76 0.0 0.0 0.00 0.00 0.00 78 1014.9
20260902115516 76 0.0 0.0 0.00 0.00 0.00 78 1014.9
20260902114516 76 0.0 0.0 0.00 0.00 0.00 78 1014.8
20260902113516 76 0.0 0.0 0.00 0.00 0.00 78 1014.8
20260902112536 76 113 1.0 2.0 0.00 0.00 0.00 78 1014.8
20260902111516 76 113 2.0 3.0 0.00 0.00 0.00 77 1014.7
20260902110516 77 113 1.0 3.0 0.00 0.00 0.00 76 1014.7
20260902105516 78 0.0 0.0 0.00 0.00 0.00 75 1014.7
20260902104517 78 0.0 0.0 0.00 0.00 0.00 75 1014.7
20260902103516 78 0.0 0.0 0.00 0.00 0.00 74 1014.6
20260902102516 79 0.0 0.0 0.00 0.00 0.00 74 1014.6
20260902101516 79 0.0 0.0 0.00 0.00 0.00 73 1014.6
20260902100516 79 0.0 0.0 0.00 0.00 0.00 73 1014.7
20260902095517 79 0.0 0.0 0.00 0.00 0.00 73 1014.7
20260902094516 80 0.0 0.0 0.00 0.00 0.00 72 1014.7
20260902093516 80 0.0 0.0 0.00 0.00 0.00 71 1014.7
20260902092517 80 135 1.0 3.0 0.00 0.00 0.00 71 1014.7
20260902091516 81 135 1.0 2.0 0.00 0.00 0.00 71 1014.8
20260902090516 81 135 2.0 3.0 0.00 0.00 0.00 70 1014.8
20260902085516 81 158 2.0 3.0 0.00 0.00 0.00 69 1014.9
20260902084516 82 135 2.0 4.0 0.00 0.00 0.00 69 1014.8
20260902083516 82 158 2.0 6.0 0.00 0.00 0.00 68 1014.9
20260902082516 82 158 3.0 6.0 0.00 0.00 0.00 68 1014.9
20260902081536 82 158 1.0 3.0 0.00 0.00 0.00 68 1015.0
20260902080516 82 158 2.0 3.0 0.00 0.00 0.00 68 1014.9
20260902075516 82 158 2.0 5.0 0.00 0.00 0.00 68 1014.9
20260902074516 82 158 2.0 4.0 0.00 0.00 0.00 68 1014.9
20260902073515 81 135 2.0 4.0 0.00 0.00 0.00 68 1014.9
20260902072515 81 135 2.0 4.0 0.00 0.00 0.00 68 1014.9
20260902071516 81 135 2.0 4.0 0.00 0.00 0.00 68 1014.8
20260902070515 81 135 2.0 3.0 0.00 0.00 0.00 68 1014.8
20260902065516 81 135 2.0 3.0 0.00 0.00 0.00 67 1014.8
20260902064515 81 0.0 0.0 0.00 0.00 0.00 66 1014.8
20260902063515 81 0.0 0.0 0.00 0.00 0.00 66 1014.7
20260902062515 82 0.0 0.0 0.00 0.00 0.00 65 1014.6
20260902061515 82 0.0 0.0 0.00 0.00 0.00 65 1014.6
20260902060515 82 0.0 1.0 0.00 0.00 0.00 65 1014.5
20260902055535 82 113 1.0 2.0 0.00 0.00 0.00 64 1014.4
20260902054515 82 0.0 0.0 0.00 0.00 0.00 64 1014.2
20260902053515 82 113 1.0 2.0 0.00 0.00 0.00 64 1014.2
20260902052515 83 0.0 0.0 0.00 0.00 0.00 63 1014.2
20260902051517 83 0.0 1.0 0.00 0.00 0.00 63 1014.2
20260902050517 83 113 1.0 2.0 0.00 0.00 0.00 62 1014.1
20260902045516 83 0.0 2.0 0.00 0.00 0.00 62 1014.2
20260902044516 83 113 1.0 2.0 0.00 0.00 0.00 62 1014.2
20260902043516 84 0.0 0.0 0.00 0.00 0.00 61 1014.3
20260902042516 84 0.0 0.0 0.00 0.00 0.00 60 1014.2
20260902041516 84 0.0 0.0 0.00 0.00 0.00 60 1014.1
20260902040516 85 0.0 0.0 0.00 0.00 0.00 59 1014.2